User: anonymous   Login
Location: Blackwater Beach
(38.5801°N, 75.1577°W)
Time: 06:05:56
(UTC+00:00)
Language:

Resurs 01 Rocket - Orbit

View from above orbital plane
View from above orbital plane
View from above satellite
View from above satellite

Ground track
Ground track

The orbit is defined by the following mean orbital elements,

1 23343U          26106.82529398 +.00000000 +00000-0 +38972-4 0 00002
2 23343  97.7052 136.0886 0008119  96.3414  76.7600 14.79449659    09
Epoch (UTC): 16 April 2026 19:48:25
Eccentricity: 0.0008119
inclination: 97.7052°
perigee height: 625 km
apogee height: 637 km
right ascension of ascending node: 136.0886°
argument of perigee: 96.3414°
revolutions per day: 14.79449659
mean anomaly at epoch: 76.7600°

The dashed part of the orbit path shows where the satellite is in the earth's shadow,  

DLR